[[{"header":{"parameterUnit":"m.s-1","parameterCategory":1,"la1":30.2991,"la2":30.254,"lo1":-89.0895,"lo2":-89.0444,"dy":0.0017,"dx":0.0017,"nx":28,"ny":28,"refTime":"2026-01-10T03:00:00:Z","depth":0,"parameterNumber":2,"parameterNumberName":"U-component_of_WINDS"},"data":[0,0,0,0,0,0,0,0,0,0,0,0,0,0,0,0,0,0,0,0,0,0,0,0,0,0,0,0,0,0,0,0,0,0,0,0,0,0,0,0,0,0,0,0,0,0,0,0,0,0,0,0,0,0,0,0,0,0,2.7209,2.7209,0,2.7212,2.7212,2.7212,2.7176,2.7175,2.7174,2.7173,2.7178,2.7179,2.718,0,0,0,0,0,0,0,0,0,0,0,0,0,2.7174,2.7175,2.7209,2.7209,2.7209,2.7212,2.7212,2.7212,2.7176,2.7175,2.7173,2.7172,2.7178,2.7179,2.718,0,0,0,0,0,0,0,0,0,0,0,0,0,2.7184,2.7175,2.7209,2.7191,2.7189,2.7212,2.7212,2.7212,2.7176,2.7175,2.7173,2.7172,2.7177,2.7179,2.718,2.7221,0,0,2.7185,2.7186,0,0,0,0,0,0,0,0,2.7184,2.7186,2.7194,2.7192,2.7191,2.7192,2.7202,2.7215,2.7177,2.7181,2.7173,2.7171,2.7184,2.7185,2.7189,2.7221,2.7221,2.7186,2.7186,2.7187,2.7188,0,0,0,0,0,0,0,2.7183,2.7185,2.721,2.7194,2.7192,2.7184,2.7184,2.7204,2.7191,2.7181,2.7178,2.7179,2.7183,2.7187,2.7189,2.7221,2.7185,2.7187,2.7188,2.7189,2.7289,2.7291,0,0,0,0,0,0,2.7185,2.7185,2.721,2.721,2.7183,2.7186,2.7186,2.7193,2.7191,2.7189,2.718,2.7177,2.7185,2.7187,2.7189,2.7237,2.7187,2.7189,2.719,2.7287,2.7289,2.7291,0,0,0,0,0,0,2.7184,2.7187,2.721,2.7197,2.7199,2.7188,2.7197,2.7194,2.7198,2.719,2.7188,2.7187,2.7184,2.7187,2.7213,2.7237,2.7189,2.7191,2.7285,2.7288,2.729,2.7334,0,0,0,0,0,0,2.7183,2.7187,2.7201,2.7197,2.72,2.7233,2.7198,2.7195,2.7201,2.7197,2.7196,2.7195,2.7183,2.7211,2.7215,2.7238,2.7192,2.7283,2.7286,2.7289,2.733,2.7337,2.7344,0,0,0,0,0,2.7182,2.7213,2.7202,2.7205,2.7217,2.7235,2.7236,2.7222,2.7203,2.7218,2.7213,2.7195,2.7234,2.7214,2.7218,2.7242,2.7282,2.7285,2.7289,2.7327,2.7336,2.7343,0,0,0,0,0,0,2.722,2.7212,2.72,2.7231,2.7234,2.7228,2.7247,2.7232,2.724,2.7236,2.7219,2.7219,2.725,2.7249,2.7227,2.7282,2.7254,2.7259,2.7282,2.729,2.7297,2.7297,2.7193,0,0,0,0,0,2.7232,2.7246,2.7239,2.7267,2.7269,2.7258,2.7265,2.7254,2.7256,2.7257,2.7254,2.7258,2.7272,2.7281,2.7293,2.733,2.733,2.7349,2.7355,2.7361,2.7365,2.7387,2.7396,2.7304,2.7304,2.7304,0,0,2.7257,2.7254,2.7264,2.7274,2.7275,2.7291,2.7259,2.7277,2.7289,2.726,2.7286,2.7284,2.7287,2.732,2.7335,2.732,2.7391,2.7366,2.737,2.7372,2.7392,2.7401,2.7409,2.7306,2.7306,2.7305,0,0,2.731,2.7309,2.7333,2.7335,2.7337,2.733,2.7336,2.7334,2.7332,2.7357,2.7336,2.7351,2.7374,2.7378,2.7383,2.7441,2.7425,2.7445,2.7481,2.7502,2.7509,2.7516,2.7538,2.7546,2.745,2.745,2.745,0,2.7341,2.7363,2.7348,2.7367,2.7373,2.7348,2.7374,2.7377,2.7383,2.7388,2.7372,2.7402,2.7402,2.7436,2.7451,2.7455,2.7463,2.7445,2.7509,2.7516,2.7521,2.7542,2.7551,2.7452,2.7452,2.7452,2.7452,0,2.7402,2.7418,2.7437,2.7444,2.7452,2.7475,2.7464,2.7474,2.7463,2.7458,2.7486,2.7486,2.7498,2.7505,2.7494,2.7539,2.753,2.7512,2.7484,2.7533,2.7553,2.756,2.7456,2.7455,2.7454,2.7454,0,0,2.7478,2.7477,2.7485,2.7488,2.749,2.7503,2.7525,2.7537,2.7547,2.7553,2.7572,2.7593,2.7577,2.7583,2.7573,2.7592,2.764,2.7571,2.7571,2.7585,2.7691,2.7705,2.7714,2.7629,2.7631,2.7632,2.7691,0,2.7531,2.7568,2.7556,2.7594,2.761,2.7588,2.7608,2.7612,2.7608,2.7622,2.7619,2.7635,2.7611,2.7615,2.7633,2.763,2.7661,2.7626,2.7648,2.7649,2.7648,2.7724,2.7738,2.7794,2.7698,2.77,2.77,0,2.7598,2.7606,2.7646,2.7647,2.7653,2.7671,2.7682,2.7695,2.77,2.7697,2.7705,2.7691,2.7715,2.7687,2.772,2.7697,2.7705,2.7706,2.7708,2.7709,2.7678,2.7729,2.7811,2.782,2.7712,2.7711,2.771,0,2.7651,2.7673,2.77,2.7703,2.7705,2.7718,2.772,2.7723,2.7732,2.7742,2.7748,2.7761,2.7768,2.7779,2.777,2.775,2.7806,2.7777,2.7805,2.7805,2.7817,2.7817,2.7903,2.7822,2.7822,2.7822,2.7822,0,2.7711,2.7737,2.7724,2.774,2.7769,2.7756,2.7785,2.7784,2.7788,2.7805,2.7787,2.7804,2.7791,2.7808,2.7801,2.7831,2.7834,2.7833,2.7831,2.7835,2.7835,2.7841,2.7837,2.7824,2.7824,2.7823,2.7823,0,2.7775,2.7767,2.7796,2.7795,2.7796,2.7817,2.7817,2.7834,2.783,2.7852,2.7857,2.7851,2.787,2.7862,2.7882,2.7878,2.7916,2.7909,2.7914,2.7913,2.7942,2.794,2.8035,2.8048,2.7958,2.7959,2.796,0,2.7815,2.7834,2.7836,2.7846,2.7849,2.7865,2.7874,2.7863,2.7873,2.7882,2.7898,2.7915,2.7928,2.7959,2.7957,2.7973,2.7966,2.7999,2.7968,2.7972,2.7968,2.7967,2.797,2.8005,2.8006,2.8007,2.8007,0,2.7886,2.7881,2.7895,2.7908,2.7919,2.7928,2.7936,2.7946,2.7935,2.7948,2.7967,2.7977,2.7998,2.8016,2.803,2.8033,2.8019,2.8017,2.8025,2.8029,2.8032,2.8032,2.7932,2.8015,2.8014,2.8013,2.8013,2.8013,2.7939,2.7956,2.7961,2.7977,2.7982,2.799,2.8006,2.8005,2.802,2.8036,2.8028,2.8051,2.8058,2.8076,2.8081,2.8099,2.8087,2.8097,2.81,2.8103,2.8107,2.8029,2.8102,2.8102,2.8101,2.8101,2.8101,0,2.801,2.8012,2.8027,2.804,2.8053,2.8038,2.8047,2.806,2.8079,2.8087,2.8101,2.8123,2.8141,2.8142,2.8159,2.8174,2.8168,2.8179,2.8178,2.8179,2.8117,2.8109,2.8183,2.8183,2.8183,2.8183,2.8183,2.8183,2.8049,2.8077,2.8073,2.8105,2.8107,2.8129,2.8135,2.8144,2.815,2.8176,2.8191,2.8191,2.8197,2.8214,2.8231,2.8231,2.8238,2.8252,2.8249,2.8191,2.8183,2.8175,2.8168,2.8253,2.8253,2.831,2.831,2.8311]},{"header":{"parameterUnit":"m.s-1","parameterCategory":1,"la1":30.2991,"la2":30.254,"lo1":-89.0895,"lo2":-89.0444,"dy":0.0017,"dx":0.0017,"nx":28,"ny":28,"refTime":"2026-01-10T03:00:00:Z","depth":0,"parameterNumber":3,"parameterNumberName":"V-component_of_WINDS"},"data":[0,0,0,0,0,0,0,0,0,0,0,0,0,0,0,0,0,0,0,0,0,0,0,0,0,0,0,0,0,0,0,0,0,0,0,0,0,0,0,0,0,0,0,0,0,0,0,0,0,0,0,0,0,0,0,0,0,0,3.4192,3.4193,0,3.4325,3.4326,3.4328,3.4346,3.4345,3.4343,3.4342,3.4482,3.4487,3.4492,0,0,0,0,0,0,0,0,0,0,0,0,0,3.3958,3.3962,3.4191,3.4193,3.4195,3.4325,3.4326,3.4328,3.4346,3.4344,3.4343,3.4341,3.4481,3.4486,3.4492,0,0,0,0,0,0,0,0,0,0,0,0,0,3.4072,3.3963,3.4191,3.4219,3.4223,3.4324,3.4326,3.4329,3.4346,3.4344,3.4343,3.4341,3.4479,3.4486,3.4493,3.4577,0,0,3.4516,3.4519,0,0,0,0,0,0,0,0,3.4065,3.408,3.4213,3.4217,3.4222,3.4317,3.4295,3.4412,3.4347,3.43,3.4342,3.434,3.4429,3.444,3.447,3.4583,3.4589,3.4516,3.4521,3.4524,3.4526,0,0,0,0,0,0,0,3.4057,3.4075,3.4244,3.4215,3.4221,3.4227,3.4241,3.4318,3.4373,3.4304,3.4305,3.4321,3.4431,3.4462,3.4473,3.4591,3.4516,3.4523,3.4527,3.453,3.4784,3.4786,0,0,0,0,0,0,3.4044,3.4068,3.424,3.4248,3.4137,3.4233,3.4248,3.4288,3.4373,3.4384,3.4322,3.4321,3.4451,3.4464,3.4478,3.4584,3.4524,3.4531,3.4535,3.4781,3.4784,3.4787,0,0,0,0,0,0,3.4039,3.4059,3.4235,3.4159,3.4182,3.4239,3.4283,3.4292,3.4323,3.4386,3.4397,3.4344,3.445,3.4468,3.4552,3.4589,3.4534,3.4541,3.4779,3.4782,3.4785,3.4794,0,0,0,0,0,0,3.4032,3.4057,3.4088,3.4159,3.4186,3.4305,3.4285,3.4296,3.4336,3.4335,3.441,3.442,3.445,3.4541,3.456,3.4598,3.4546,3.4776,3.478,3.4784,3.4791,3.4797,3.4803,0,0,0,0,0,3.4023,3.4085,3.4089,3.411,3.4225,3.4307,3.4323,3.4354,3.4338,3.4371,3.4412,3.4418,3.4581,3.455,3.4571,3.4611,3.4773,3.4779,3.4784,3.4788,3.4796,3.4803,0,0,0,0,0,0,3.4017,3.4095,3.41,3.4187,3.424,3.431,3.4352,3.4361,3.4421,3.4419,3.4457,3.4474,3.4557,3.4593,3.4556,3.4698,3.4676,3.4686,3.4672,3.468,3.4686,3.4677,3.4553,0,0,0,0,0,3.4025,3.4084,3.415,3.422,3.4246,3.4294,3.4331,3.4351,3.4409,3.4432,3.4479,3.4536,3.4601,3.4642,3.4705,3.4796,3.4814,3.4834,3.484,3.4845,3.4853,3.4907,3.4918,3.4804,3.4804,3.4804,0,0,3.4044,3.4094,3.4129,3.422,3.4263,3.4326,3.4313,3.4379,3.4426,3.4442,3.4526,3.4562,3.4628,3.4717,3.4759,3.475,3.4889,3.4852,3.4855,3.4861,3.4913,3.4924,3.4934,3.4807,3.4807,3.4806,0,0,3.4109,3.4152,3.4216,3.426,3.4327,3.4359,3.4375,3.4444,3.4469,3.4553,3.4567,3.4624,3.4734,3.4781,3.482,3.4906,3.4914,3.4925,3.4957,3.5009,3.5018,3.5026,3.5059,3.5071,3.4933,3.4933,3.4933,0,3.4124,3.4217,3.4248,3.4314,3.4355,3.4372,3.4439,3.448,3.4564,3.4593,3.4581,3.4721,3.4766,3.4868,3.4889,3.4919,3.494,3.4917,3.5014,3.5023,3.5031,3.5063,3.5075,3.4934,3.4934,3.4934,3.4934,0,3.4233,3.4297,3.4341,3.4422,3.4468,3.4533,3.4577,3.462,3.4636,3.467,3.4757,3.4813,3.4888,3.4913,3.493,3.5018,3.5011,3.5006,3.4985,3.5042,3.5073,3.5085,3.4935,3.4935,3.4935,3.4934,0,0,3.4298,3.4396,3.4412,3.4449,3.4525,3.4576,3.4644,3.4717,3.4754,3.4812,3.4872,3.4965,3.4962,3.5005,3.5028,3.5073,3.5141,3.5063,3.5066,3.5078,3.5245,3.5249,3.5263,3.5146,3.5149,3.5151,3.524,0,3.4373,3.4493,3.4525,3.4628,3.4689,3.4707,3.4767,3.4821,3.4855,3.4914,3.4952,3.5018,3.5008,3.5035,3.508,3.5123,3.5175,3.5117,3.5205,3.5207,3.5189,3.5278,3.5283,3.5364,3.5252,3.5254,3.5256,0,3.4478,3.4538,3.4647,3.4717,3.4744,3.4796,3.4867,3.4922,3.4985,3.5007,3.5057,3.5075,3.5149,3.5123,3.5227,3.5186,3.5224,3.5251,3.5255,3.5266,3.5236,3.5294,3.5391,3.5404,3.5274,3.5273,3.5272,0,3.4517,3.4625,3.4705,3.4736,3.4819,3.4856,3.4893,3.4954,3.4997,3.5059,3.5088,3.5158,3.5197,3.5252,3.529,3.5268,3.5392,3.5369,3.5414,3.5414,3.5441,3.5439,3.5547,3.5462,3.5462,3.5462,3.5461,0,3.4599,3.4665,3.4724,3.4773,3.4849,3.4885,3.496,3.4998,3.5052,3.5111,3.513,3.5185,3.5231,3.5293,3.5324,3.5407,3.5424,3.5445,3.5453,3.5444,3.5442,3.5471,3.5467,3.5465,3.5464,3.5464,3.5463,0,3.4655,3.4696,3.4785,3.4857,3.4877,3.493,3.4993,3.5042,3.5077,3.5152,3.5171,3.5227,3.5301,3.5344,3.5438,3.5458,3.5551,3.5555,3.553,3.5533,3.5578,3.5574,3.571,3.5731,3.563,3.5631,3.5631,0,3.4706,3.4758,3.4835,3.4876,3.4913,3.4977,3.5021,3.506,3.5105,3.5182,3.5223,3.5298,3.5361,3.5478,3.5529,3.5601,3.5608,3.5651,3.5619,3.561,3.5612,3.5609,3.5615,3.5657,3.5658,3.5658,3.5659,0,3.4792,3.481,3.4872,3.4943,3.4994,3.5052,3.5109,3.5141,3.519,3.524,3.5316,3.5364,3.546,3.5535,3.5612,3.5652,3.5665,3.5668,3.5683,3.5676,3.566,3.5672,3.5547,3.5665,3.5665,3.5664,3.5664,3.5664,3.4848,3.4896,3.4959,3.5029,3.5076,3.5129,3.518,3.5222,3.5285,3.5366,3.5385,3.5466,3.553,3.5634,3.5676,3.5741,3.5734,3.5755,3.5761,3.5766,3.5768,3.5648,3.5755,3.5755,3.5755,3.5755,3.5755,0,3.4937,3.4979,3.5042,3.5122,3.5177,3.5183,3.5247,3.5294,3.5364,3.5422,3.5483,3.5572,3.5646,3.5702,3.5778,3.5819,3.5827,3.5838,3.5836,3.5846,3.5769,3.5749,3.5831,3.5831,3.5831,3.5831,3.5831,3.5831,3.499,3.5072,3.5099,3.5206,3.5247,3.5326,3.5362,3.5412,3.5459,3.5557,3.5618,3.5654,3.5713,3.5794,3.5863,3.5877,3.5906,3.5916,3.5932,3.5859,3.5851,3.5843,3.5825,3.5921,3.5921,3.6004,3.6005,3.6005]}]]